Time,TemperatureF,DewpointF,PressureIn,WindDirection,WindDirectionDegrees,WindSpeedMPH,WindSpeedGustMPH,Humidity,HourlyPrecipIn,Conditions,Clouds,dailyrainin,SoftwareType,DateUTC
2013-01-02 00:01:00,53.6,18.7,30.16,SE,135,4.0,9.0,25,0.00,,,0.00,meteohub,2013-01-02 08:01:00,
2013-01-02 00:06:00,52.2,25.3,30.16,East,90,3.0,9.0,35,0.00,,,0.00,meteohub,2013-01-02 08:06:00,
2013-01-02 00:11:00,50.9,26.2,30.16,NE,45,2.0,8.0,38,0.00,,,0.00,meteohub,2013-01-02 08:11:00,
2013-01-02 00:16:00,49.6,28.6,30.16,East,90,2.0,5.0,44,0.00,,,0.00,meteohub,2013-01-02 08:16:00,
2013-01-02 00:21:00,48.7,29.5,30.16,East,90,2.0,4.0,47,0.00,,,0.00,meteohub,2013-01-02 08:21:00,
2013-01-02 00:26:00,47.7,30.0,30.15,East,90,4.0,4.0,50,0.00,,,0.00,meteohub,2013-01-02 08:26:00,
2013-01-02 00:31:00,47.3,31.5,30.15,East,90,2.0,4.0,54,0.00,,,0.00,meteohub,2013-01-02 08:31:00,
2013-01-02 00:36:00,46.9,32.0,30.15,East,90,2.0,4.0,56,0.00,,,0.00,meteohub,2013-01-02 08:36:00,
2013-01-02 00:41:00,46.4,31.6,30.15,East,90,2.0,4.0,56,0.00,,,0.00,meteohub,2013-01-02 08:41:00,
2013-01-02 00:46:00,45.9,31.1,30.15,East,90,2.0,4.0,56,0.00,,,0.00,meteohub,2013-01-02 08:46:00,
2013-01-02 00:51:00,45.3,30.9,30.15,East,90,2.0,3.0,57,0.00,,,0.00,meteohub,2013-01-02 08:51:00,
2013-01-02 00:56:00,44.8,31.8,30.14,East,90,1.0,3.0,60,0.00,,,0.00,meteohub,2013-01-02 08:56:00,
2013-01-02 01:01:00,44.2,32.4,30.15,East,90,2.0,3.0,63,0.00,,,0.00,meteohub,2013-01-02 09:01:00,
2013-01-02 01:06:00,44.2,33.3,30.15,East,90,2.0,2.0,65,0.00,,,0.00,meteohub,2013-01-02 09:06:00,
2013-01-02 01:11:00,44.1,33.1,30.15,East,90,2.0,2.0,65,0.00,,,0.00,meteohub,2013-01-02 09:11:00,
2013-01-02 01:16:00,43.9,33.3,30.15,East,90,2.0,2.0,66,0.00,,,0.00,meteohub,2013-01-02 09:16:00,
2013-01-02 01:21:00,43.5,33.3,30.15,East,90,2.0,2.0,67,0.00,,,0.00,meteohub,2013-01-02 09:21:00,
2013-01-02 01:26:00,43.2,32.9,30.15,East,90,2.0,2.0,67,0.00,,,0.00,meteohub,2013-01-02 09:26:00,
2013-01-02 01:31:00,43.0,33.1,30.14,East,90,2.0,2.0,68,0.00,,,0.00,meteohub,2013-01-02 09:31:00,
2013-01-02 01:37:00,42.6,33.1,30.14,East,90,2.0,2.0,69,0.00,,,0.00,meteohub,2013-01-02 09:37:00,
2013-01-02 01:42:00,42.6,33.1,30.14,East,90,2.0,2.0,69,0.00,,,0.00,meteohub,2013-01-02 09:42:00,
2013-01-02 01:47:00,42.6,32.7,30.14,East,90,2.0,3.0,68,0.00,,,0.00,meteohub,2013-01-02 09:47:00,
2013-01-02 01:52:00,42.3,32.5,30.14,East,90,0.0,4.0,68,0.00,,,0.00,meteohub,2013-01-02 09:52:00,
2013-01-02 01:57:00,41.9,32.5,30.14,East,90,2.0,4.0,69,0.00,,,0.00,meteohub,2013-01-02 09:57:00,
2013-01-02 02:02:00,41.9,32.2,30.14,East,90,2.0,3.0,68,0.00,,,0.00,meteohub,2013-01-02 10:02:00,
2013-01-02 02:07:00,41.7,32.0,30.14,East,90,0.0,3.0,68,0.00,,,0.00,meteohub,2013-01-02 10:07:00,
2013-01-02 02:12:00,41.7,30.7,30.13,East,90,2.0,3.0,65,0.00,,,0.00,meteohub,2013-01-02 10:12:00,
2013-01-02 02:17:00,41.9,30.6,30.13,East,90,2.0,3.0,64,0.00,,,0.00,meteohub,2013-01-02 10:17:00,
2013-01-02 02:22:00,42.1,30.4,30.13,East,90,2.0,2.0,63,0.00,,,0.00,meteohub,2013-01-02 10:22:00,
2013-01-02 02:27:00,42.3,30.2,30.13,East,90,2.0,2.0,62,0.00,,,0.00,meteohub,2013-01-02 10:27:00,
2013-01-02 02:32:00,42.3,30.6,30.13,East,90,2.0,3.0,63,0.00,,,0.00,meteohub,2013-01-02 10:32:00,
2013-01-02 02:37:00,41.5,29.8,30.13,East,90,0.0,3.0,63,0.00,,,0.00,meteohub,2013-01-02 10:37:00,
2013-01-02 02:42:00,41.2,30.4,30.13,East,90,1.0,3.0,65,0.00,,,0.00,meteohub,2013-01-02 10:42:00,
2013-01-02 02:47:00,41.4,31.3,30.13,East,90,2.0,2.0,67,0.00,,,0.00,meteohub,2013-01-02 10:47:00,
2013-01-02 02:52:00,41.5,31.8,30.13,East,90,2.0,2.0,68,0.00,,,0.00,meteohub,2013-01-02 10:52:00,
2013-01-02 02:57:00,41.9,31.5,30.12,East,90,3.0,3.0,66,0.00,,,0.00,meteohub,2013-01-02 10:57:00,
2013-01-02 03:02:00,41.9,30.9,30.12,East,90,3.0,3.0,65,0.00,,,0.00,meteohub,2013-01-02 11:02:00,
2013-01-02 03:07:00,41.9,30.9,30.12,East,90,2.0,3.0,65,0.00,,,0.00,meteohub,2013-01-02 11:07:00,
2013-01-02 03:12:00,41.9,30.6,30.12,SE,135,2.0,3.0,64,0.00,,,0.00,meteohub,2013-01-02 11:12:00,
2013-01-02 03:17:00,41.9,30.9,30.12,SE,135,2.0,3.0,65,0.00,,,0.00,meteohub,2013-01-02 11:17:00,
2013-01-02 03:22:00,41.9,30.6,30.12,East,90,2.0,2.0,64,0.00,,,0.00,meteohub,2013-01-02 11:22:00,
2013-01-02 03:27:00,42.1,30.7,30.11,East,90,2.0,3.0,64,0.00,,,0.00,meteohub,2013-01-02 11:27:00,
2013-01-02 03:32:00,41.9,29.8,30.11,East,90,2.0,3.0,62,0.00,,,0.00,meteohub,2013-01-02 11:32:00,
2013-01-02 03:37:00,41.9,29.5,30.10,East,90,2.0,3.0,61,0.00,,,0.00,meteohub,2013-01-02 11:37:00,
2013-01-02 03:42:00,42.3,28.9,30.10,East,90,4.0,4.0,59,0.00,,,0.00,meteohub,2013-01-02 11:42:00,
2013-01-02 03:47:00,42.8,29.5,30.10,NE,45,3.0,4.0,59,0.00,,,0.00,meteohub,2013-01-02 11:47:00,
2013-01-02 03:52:00,42.3,28.9,30.10,NE,45,2.0,4.0,59,0.00,,,0.00,meteohub,2013-01-02 11:52:00,
2013-01-02 03:57:00,41.9,28.6,30.10,NE,45,2.0,4.0,59,0.00,,,0.00,meteohub,2013-01-02 11:57:00,
2013-01-02 04:02:00,41.9,28.6,30.10,NE,45,3.0,4.0,59,0.00,,,0.00,meteohub,2013-01-02 12:02:00,
2013-01-02 04:07:00,42.1,28.8,30.10,NE,45,4.0,4.0,59,0.00,,,0.00,meteohub,2013-01-02 12:07:00,
2013-01-02 04:12:00,41.9,27.9,30.10,NE,45,3.0,4.0,57,0.00,,,0.00,meteohub,2013-01-02 12:12:00,
2013-01-02 04:17:00,41.9,28.2,30.10,NE,45,1.0,4.0,58,0.00,,,0.00,meteohub,2013-01-02 12:17:00,
2013-01-02 04:22:00,42.1,27.5,30.09,East,90,4.0,4.0,56,0.00,,,0.00,meteohub,2013-01-02 12:22:00,
2013-01-02 04:27:00,42.4,26.6,30.09,East,90,4.0,4.0,53,0.00,,,0.00,meteohub,2013-01-02 12:27:00,
2013-01-02 04:32:00,43.0,25.7,30.10,East,90,4.0,5.0,50,0.00,,,0.00,meteohub,2013-01-02 12:32:00,
2013-01-02 04:37:00,44.1,25.2,30.09,East,90,6.0,6.0,47,0.00,,,0.00,meteohub,2013-01-02 12:37:00,
2013-01-02 04:42:00,45.7,23.4,30.09,SE,135,4.0,8.0,41,0.00,,,0.00,meteohub,2013-01-02 12:42:00,
2013-01-02 04:47:00,46.8,21.9,30.09,South,180,4.0,8.0,37,0.00,,,0.00,meteohub,2013-01-02 12:47:00,
2013-01-02 04:52:00,48.0,20.3,30.09,SE,135,5.0,8.0,33,0.00,,,0.00,meteohub,2013-01-02 12:52:00,
2013-01-02 04:57:00,49.6,19.4,30.09,East,90,8.0,8.0,30,0.00,,,0.00,meteohub,2013-01-02 12:57:00,
2013-01-02 05:02:00,50.2,19.9,30.08,East,90,8.0,9.0,30,0.00,,,0.00,meteohub,2013-01-02 13:02:00,
2013-01-02 05:07:00,50.0,20.5,30.08,ESE,113,8.0,11.0,31,0.00,,,0.00,meteohub,2013-01-02 13:07:00,
2013-01-02 05:12:00,49.6,20.3,30.09,ESE,113,4.0,11.0,31,0.00,,,0.00,meteohub,2013-01-02 13:12:00,
2013-01-02 05:17:00,50.2,19.2,30.09,ESE,113,4.0,11.0,29,0.00,,,0.00,meteohub,2013-01-02 13:17:00,
2013-01-02 05:22:00,51.1,16.5,30.09,SE,135,9.0,10.0,25,0.00,,,0.00,meteohub,2013-01-02 13:22:00,
2013-01-02 05:27:00,51.8,16.2,30.09,SE,135,8.0,9.0,24,0.00,,,0.00,meteohub,2013-01-02 13:27:00,
2013-01-02 05:32:00,52.9,14.0,30.09,SE,135,8.0,9.0,21,0.00,,,0.00,meteohub,2013-01-02 13:32:00,
2013-01-02 05:37:00,53.2,14.4,30.09,SE,135,7.0,13.0,21,0.00,,,0.00,meteohub,2013-01-02 13:37:00,
2013-01-02 05:42:00,53.4,13.3,30.08,South,180,5.0,13.0,20,0.00,,,0.00,meteohub,2013-01-02 13:42:00,
2013-01-02 05:47:00,53.6,13.5,30.09,South,180,7.0,13.0,20,0.00,,,0.00,meteohub,2013-01-02 13:47:00,
2013-01-02 05:52:00,53.4,12.2,30.08,SE,135,8.0,11.0,19,0.00,,,0.00,meteohub,2013-01-02 13:52:00,
2013-01-02 05:57:00,54.0,10.0,30.08,South,180,12.0,12.0,17,0.00,,,0.00,meteohub,2013-01-02 13:57:00,
2013-01-02 06:02:00,54.9,9.5,30.08,SE,135,6.0,12.0,16,0.00,,,0.00,meteohub,2013-01-02 14:02:00,
2013-01-02 06:07:00,54.5,11.8,30.08,SSE,158,7.0,12.0,18,0.00,,,0.00,meteohub,2013-01-02 14:07:00,
2013-01-02 06:11:00,54.0,12.6,30.08,SE,135,7.0,12.0,19,0.00,,,0.00,meteohub,2013-01-02 14:11:00,
2013-01-02 06:16:00,54.1,10.2,30.08,SE,135,8.0,10.0,17,0.00,,,0.00,meteohub,2013-01-02 14:16:00,
2013-01-02 06:21:00,54.9,9.5,30.09,SE,135,9.0,10.0,16,0.00,,,0.00,meteohub,2013-01-02 14:21:00,
2013-01-02 06:26:00,52.5,27.0,30.09,East,90,7.0,11.0,37,0.00,,,0.00,meteohub,2013-01-02 14:26:00,
2013-01-02 06:31:00,48.9,29.7,30.09,NE,45,4.0,11.0,47,0.00,,,0.00,meteohub,2013-01-02 14:31:00,
2013-01-02 06:36:00,46.0,29.5,30.09,NE,45,3.0,11.0,52,0.00,,,0.00,meteohub,2013-01-02 14:36:00,
2013-01-02 06:41:00,44.2,31.3,30.10,NE,45,3.0,11.0,60,0.00,,,0.00,meteohub,2013-01-02 14:41:00,
2013-01-02 06:46:00,42.8,31.8,30.10,NE,45,4.0,5.0,65,0.00,,,0.00,meteohub,2013-01-02 14:46:00,
2013-01-02 06:51:00,41.9,30.9,30.10,NE,45,2.0,5.0,65,0.00,,,0.00,meteohub,2013-01-02 14:51:00,
2013-01-02 06:56:00,41.5,31.1,30.09,North,0,2.0,5.0,66,0.00,,,0.00,meteohub,2013-01-02 14:56:00,
2013-01-02 07:01:00,41.4,30.9,30.10,NNE,23,2.0,4.0,66,0.00,,,0.00,meteohub,2013-01-02 15:01:00,
2013-01-02 07:06:00,41.4,30.6,30.10,NNE,23,1.0,3.0,65,0.00,,,0.00,meteohub,2013-01-02 15:06:00,
2013-01-02 07:12:00,41.4,30.9,30.10,NNE,23,1.0,3.0,66,0.00,,,0.00,meteohub,2013-01-02 15:12:00,
2013-01-02 07:17:00,41.4,31.3,30.10,NE,45,2.0,2.0,67,0.00,,,0.00,meteohub,2013-01-02 15:17:00,
2013-01-02 07:22:00,44.1,28.0,30.10,East,90,7.0,7.0,53,0.00,,,0.00,meteohub,2013-01-02 15:22:00,
2013-01-02 07:27:00,45.7,31.8,30.10,East,90,4.0,11.0,58,0.00,,,0.00,meteohub,2013-01-02 15:27:00,
2013-01-02 07:32:00,45.3,31.5,30.09,SE,135,6.0,11.0,58,0.00,,,0.00,meteohub,2013-01-02 15:32:00,
2013-01-02 07:37:00,46.6,31.6,30.10,NNE,23,2.0,8.0,56,0.00,,,0.00,meteohub,2013-01-02 15:37:00,
2013-01-02 07:42:00,47.5,30.7,30.09,NE,45,6.0,7.0,52,0.00,,,0.00,meteohub,2013-01-02 15:42:00,
2013-01-02 07:47:00,48.9,30.6,30.10,NE,45,4.0,6.0,49,0.00,,,0.00,meteohub,2013-01-02 15:47:00,
2013-01-02 07:52:00,50.4,29.8,30.10,NE,45,4.0,6.0,45,0.00,,,0.00,meteohub,2013-01-02 15:52:00,
2013-01-02 07:57:00,51.3,28.9,30.10,NE,45,5.0,6.0,42,0.00,,,0.00,meteohub,2013-01-02 15:57:00,
2013-01-02 08:02:00,52.2,28.6,30.09,North,0,3.0,5.0,40,0.00,,,0.00,meteohub,2013-01-02 16:02:00,
2013-01-02 08:07:00,53.6,28.6,30.10,NE,45,3.0,5.0,38,0.00,,,0.00,meteohub,2013-01-02 16:07:00,
2013-01-02 08:12:00,53.8,28.8,30.10,SE,135,4.0,5.0,38,0.00,,,0.00,meteohub,2013-01-02 16:12:00,
2013-01-02 08:17:00,53.6,29.8,30.10,East,90,4.0,10.0,40,0.00,,,0.00,meteohub,2013-01-02 16:17:00,
2013-01-02 08:22:00,54.9,29.1,30.10,NE,45,4.0,10.0,37,0.00,,,0.00,meteohub,2013-01-02 16:22:00,
2013-01-02 08:27:00,55.0,29.3,30.11,ESE,113,4.0,10.0,37,0.00,,,0.00,meteohub,2013-01-02 16:27:00,
2013-01-02 08:32:00,56.7,27.1,30.10,East,90,4.0,6.0,32,0.00,,,0.00,meteohub,2013-01-02 16:32:00,
2013-01-02 08:37:00,57.7,25.7,30.11,ESE,113,4.0,9.0,29,0.00,,,0.00,meteohub,2013-01-02 16:37:00,
2013-01-02 08:42:00,58.6,26.4,30.11,ENE,68,5.0,9.0,29,0.00,,,0.00,meteohub,2013-01-02 16:42:00,
2013-01-02 08:47:00,58.8,28.9,30.11,NE,45,4.0,9.0,32,0.00,,,0.00,meteohub,2013-01-02 16:47:00,
2013-01-02 08:52:00,59.2,28.6,30.11,NE,45,4.0,7.0,31,0.00,,,0.00,meteohub,2013-01-02 16:52:00,
2013-01-02 08:57:00,59.9,29.1,30.12,NE,45,4.0,7.0,31,0.00,,,0.00,meteohub,2013-01-02 16:57:00,
2013-01-02 09:02:00,61.0,29.3,30.12,North,0,3.0,7.0,30,0.00,,,0.00,meteohub,2013-01-02 17:02:00,
2013-01-02 09:07:00,61.9,25.7,30.12,NE,45,7.0,7.0,25,0.00,,,0.00,meteohub,2013-01-02 17:07:00,
2013-01-02 09:12:00,62.8,27.3,30.12,North,0,4.0,7.0,26,0.00,,,0.00,meteohub,2013-01-02 17:12:00,
2013-01-02 09:17:00,63.5,27.0,30.12,NE,45,4.0,7.0,25,0.00,,,0.00,meteohub,2013-01-02 17:17:00,
2013-01-02 09:22:00,64.6,25.9,30.12,NE,45,4.0,7.0,23,0.00,,,0.00,meteohub,2013-01-02 17:22:00,
2013-01-02 09:27:00,64.9,26.2,30.12,NE,45,4.0,4.0,23,0.00,,,0.00,meteohub,2013-01-02 17:27:00,
2013-01-02 09:32:00,65.3,24.4,30.12,NNE,23,3.0,5.0,21,0.00,,,0.00,meteohub,2013-01-02 17:32:00,
2013-01-02 09:37:00,65.8,21.2,30.12,North,0,5.0,6.0,18,0.00,,,0.00,meteohub,2013-01-02 17:37:00,
2013-01-02 09:42:00,66.0,19.9,30.12,North,0,5.0,6.0,17,0.00,,,0.00,meteohub,2013-01-02 17:42:00,
2013-01-02 09:47:00,66.6,20.3,30.12,NE,45,5.0,6.0,17,0.00,,,0.00,meteohub,2013-01-02 17:47:00,
2013-01-02 09:52:00,66.9,17.8,30.12,NE,45,4.0,5.0,15,0.00,,,0.00,meteohub,2013-01-02 17:52:00,
2013-01-02 09:57:00,67.5,18.1,30.12,East,90,2.0,5.0,15,0.00,,,0.00,meteohub,2013-01-02 17:57:00,
2013-01-02 10:02:00,67.6,21.2,30.12,North,0,3.0,5.0,17,0.00,,,0.00,meteohub,2013-01-02 18:02:00,
2013-01-02 10:07:00,69.3,23.9,30.11,WNW,293,2.0,5.0,18,0.00,,,0.00,meteohub,2013-01-02 18:07:00,
2013-01-02 10:11:00,70.3,11.1,30.11,NE,45,2.0,5.0,10,0.00,,,0.00,meteohub,2013-01-02 18:11:00,
2013-01-02 10:16:00,70.9,13.8,30.11,NW,315,3.0,5.0,11,0.00,,,0.00,meteohub,2013-01-02 18:16:00,
2013-01-02 10:21:00,71.4,14.2,30.12,WNW,293,4.0,4.0,11,0.00,,,0.00,meteohub,2013-01-02 18:21:00,
2013-01-02 10:26:00,71.2,71.2,30.11,West,270,4.0,4.0,0,0.00,,,0.00,meteohub,2013-01-02 18:26:00,
2013-01-02 10:31:00,71.1,71.1,30.12,NW,315,4.0,4.0,0,0.00,,,0.00,meteohub,2013-01-02 18:31:00,
2013-01-02 10:36:00,71.4,12.0,30.11,SW,225,4.0,5.0,10,0.00,,,0.00,meteohub,2013-01-02 18:36:00,
2013-01-02 10:41:00,70.9,70.9,30.11,WNW,293,5.0,6.0,0,0.00,,,0.00,meteohub,2013-01-02 18:41:00,
2013-01-02 10:46:00,70.9,11.7,30.11,NW,315,4.0,6.0,10,0.00,,,0.00,meteohub,2013-01-02 18:46:00,
2013-01-02 10:51:00,71.1,71.1,30.11,NW,315,4.0,6.0,0,0.00,,,0.00,meteohub,2013-01-02 18:51:00,
2013-01-02 10:56:00,70.7,13.6,30.11,WNW,293,4.0,7.0,11,0.00,,,0.00,meteohub,2013-01-02 18:56:00,
2013-01-02 11:01:00,70.5,70.5,30.11,West,270,4.0,7.0,0,0.00,,,0.00,meteohub,2013-01-02 19:01:00,
2013-01-02 11:06:00,71.2,71.2,30.11,WSW,248,2.0,7.0,0,0.00,,,0.00,meteohub,2013-01-02 19:06:00,
2013-01-02 11:11:00,71.6,71.6,30.11,NW,315,3.0,5.0,0,0.00,,,0.00,meteohub,2013-01-02 19:11:00,
2013-01-02 11:16:00,71.4,71.4,30.10,NW,315,4.0,5.0,0,0.00,,,0.00,meteohub,2013-01-02 19:16:00,
2013-01-02 11:21:00,72.0,72.0,30.10,SW,225,4.0,5.0,0,0.00,,,0.00,meteohub,2013-01-02 19:21:00,
2013-01-02 11:26:00,72.3,72.3,30.10,NW,315,4.0,7.0,0,0.00,,,0.00,meteohub,2013-01-02 19:26:00,
2013-01-02 11:32:00,72.5,72.5,30.09,NNE,23,4.0,7.0,0,0.00,,,0.00,meteohub,2013-01-02 19:32:00,
2013-01-02 11:37:00,71.4,71.4,30.09,North,0,5.0,7.0,0,0.00,,,0.00,meteohub,2013-01-02 19:37:00,
2013-01-02 11:42:00,72.3,12.7,30.09,North,0,3.0,7.0,10,0.00,,,0.00,meteohub,2013-01-02 19:42:00,
2013-01-02 11:47:00,72.7,15.1,30.09,WNW,293,8.0,8.0,11,0.00,,,0.00,meteohub,2013-01-02 19:47:00,
2013-01-02 11:52:00,71.4,16.2,30.09,NW,315,5.0,10.0,12,0.00,,,0.00,meteohub,2013-01-02 19:52:00,
2013-01-02 11:57:00,71.2,14.0,30.09,NW,315,6.0,10.0,11,0.00,,,0.00,meteohub,2013-01-02 19:57:00,
2013-01-02 12:02:00,71.8,14.4,30.09,NW,315,5.0,10.0,11,0.00,,,0.00,meteohub,2013-01-02 20:02:00,
2013-01-02 12:07:00,70.9,13.8,30.08,NW,315,6.0,8.0,11,0.00,,,0.00,meteohub,2013-01-02 20:07:00,
2013-01-02 12:12:00,70.3,15.3,30.08,West,270,3.0,8.0,12,0.00,,,0.00,meteohub,2013-01-02 20:12:00,
2013-01-02 12:17:00,71.4,12.0,30.08,NW,315,3.0,8.0,10,0.00,,,0.00,meteohub,2013-01-02 20:17:00,
2013-01-02 12:22:00,71.2,16.0,30.08,West,270,8.0,8.0,12,0.00,,,0.00,meteohub,2013-01-02 20:22:00,
2013-01-02 12:27:00,71.4,12.0,30.08,NW,315,8.0,8.0,10,0.00,,,0.00,meteohub,2013-01-02 20:27:00,
2013-01-02 12:32:00,70.5,13.5,30.08,NW,315,4.0,8.0,11,0.00,,,0.00,meteohub,2013-01-02 20:32:00,
2013-01-02 12:37:00,70.9,11.7,30.07,NW,315,5.0,8.0,10,0.00,,,0.00,meteohub,2013-01-02 20:37:00,
2013-01-02 12:42:00,70.3,15.3,30.07,NW,315,8.0,8.0,12,0.00,,,0.00,meteohub,2013-01-02 20:42:00,
2013-01-02 12:47:00,69.3,16.3,30.07,NW,315,7.0,11.0,13,0.00,,,0.00,meteohub,2013-01-02 20:47:00,
2013-01-02 12:52:00,69.4,16.5,30.07,NW,315,9.0,11.0,13,0.00,,,0.00,meteohub,2013-01-02 20:52:00,
2013-01-02 12:57:00,68.7,19.2,30.07,NW,315,11.0,11.0,15,0.00,,,0.00,meteohub,2013-01-02 20:57:00,
2013-01-02 13:02:00,68.4,23.2,30.07,West,270,9.0,11.0,18,0.00,,,0.00,meteohub,2013-01-02 21:02:00,
2013-01-02 13:07:00,68.2,24.3,30.07,NW,315,11.0,11.0,19,0.00,,,0.00,meteohub,2013-01-02 21:07:00,
2013-01-02 13:12:00,67.6,18.3,30.06,NW,315,9.0,11.0,15,0.00,,,0.00,meteohub,2013-01-02 21:12:00,
2013-01-02 13:16:00,68.0,18.7,30.06,NW,315,8.0,11.0,15,0.00,,,0.00,meteohub,2013-01-02 21:16:00,
2013-01-02 13:21:00,68.7,19.2,30.06,NW,315,11.0,11.0,15,0.00,,,0.00,meteohub,2013-01-02 21:21:00,
2013-01-02 13:26:00,68.0,22.8,30.06,NW,315,4.0,11.0,18,0.00,,,0.00,meteohub,2013-01-02 21:26:00,
2013-01-02 13:31:00,67.8,21.4,30.06,NW,315,6.0,11.0,17,0.00,,,0.00,meteohub,2013-01-02 21:31:00,
2013-01-02 13:37:00,67.5,21.2,30.06,NW,315,7.0,11.0,17,0.00,,,0.00,meteohub,2013-01-02 21:37:00,
2013-01-02 13:42:00,67.5,22.5,30.06,WNW,293,8.0,10.0,18,0.00,,,0.00,meteohub,2013-01-02 21:42:00,
2013-01-02 13:47:00,67.8,18.5,30.06,West,270,7.0,10.0,15,0.00,,,0.00,meteohub,2013-01-02 21:47:00,
2013-01-02 13:52:00,68.2,18.7,30.05,NW,315,5.0,10.0,15,0.00,,,0.00,meteohub,2013-01-02 21:52:00,
2013-01-02 13:57:00,68.9,17.8,30.06,West,270,6.0,9.0,14,0.00,,,0.00,meteohub,2013-01-02 21:57:00,
2013-01-02 14:02:00,69.3,19.6,30.06,West,270,7.0,9.0,15,0.00,,,0.00,meteohub,2013-01-02 22:02:00,
2013-01-02 14:07:00,69.4,21.2,30.05,North,0,10.0,10.0,16,0.00,,,0.00,meteohub,2013-01-02 22:07:00,
2013-01-02 14:12:00,69.1,18.0,30.06,WNW,293,7.0,11.0,14,0.00,,,0.00,meteohub,2013-01-02 22:12:00,
2013-01-02 14:17:00,69.3,16.3,30.05,NW,315,7.0,11.0,13,0.00,,,0.00,meteohub,2013-01-02 22:17:00,
2013-01-02 14:22:00,69.1,23.7,30.05,West,270,8.0,11.0,18,0.00,,,0.00,meteohub,2013-01-02 22:22:00,
2013-01-02 14:27:00,68.4,18.9,30.05,West,270,9.0,10.0,15,0.00,,,0.00,meteohub,2013-01-02 22:27:00,
2013-01-02 14:32:00,68.0,21.6,30.05,NW,315,7.0,11.0,17,0.00,,,0.00,meteohub,2013-01-02 22:32:00,
2013-01-02 14:37:00,68.4,18.9,30.05,West,270,8.0,11.0,15,0.00,,,0.00,meteohub,2013-01-02 22:37:00,
2013-01-02 14:42:00,68.4,21.9,30.06,West,270,8.0,11.0,17,0.00,,,0.00,meteohub,2013-01-02 22:42:00,
2013-01-02 14:47:00,68.0,20.1,30.06,NW,315,9.0,11.0,16,0.00,,,0.00,meteohub,2013-01-02 22:47:00,
2013-01-02 14:52:00,67.5,21.2,30.06,NW,315,8.0,11.0,17,0.00,,,0.00,meteohub,2013-01-02 22:52:00,
2013-01-02 14:57:00,67.8,28.6,30.06,NW,315,9.0,11.0,23,0.00,,,0.00,meteohub,2013-01-02 22:57:00,
2013-01-02 15:02:00,67.3,29.3,30.06,NW,315,8.0,11.0,24,0.00,,,0.00,meteohub,2013-01-02 23:02:00,
2013-01-02 15:07:00,67.6,30.6,30.06,WNW,293,8.0,11.0,25,0.00,,,0.00,meteohub,2013-01-02 23:07:00,
2013-01-02 15:12:00,67.3,27.1,30.06,West,270,8.0,11.0,22,0.00,,,0.00,meteohub,2013-01-02 23:12:00,
2013-01-02 15:17:00,68.0,24.3,30.06,NW,315,5.0,11.0,19,0.00,,,0.00,meteohub,2013-01-02 23:17:00,
2013-01-02 15:22:00,67.6,21.2,30.06,West,270,10.0,11.0,17,0.00,,,0.00,meteohub,2013-01-02 23:22:00,
2013-01-02 15:27:00,67.6,23.9,30.06,West,270,6.0,10.0,19,0.00,,,0.00,meteohub,2013-01-02 23:27:00,
2013-01-02 15:32:00,68.0,22.8,30.06,North,0,3.0,10.0,18,0.00,,,0.00,meteohub,2013-01-02 23:32:00,
2013-01-02 15:37:00,68.5,17.4,30.06,NW,315,6.0,10.0,14,0.00,,,0.00,meteohub,2013-01-02 23:37:00,
2013-01-02 15:42:00,68.7,19.2,30.06,WNW,293,5.0,8.0,15,0.00,,,0.00,meteohub,2013-01-02 23:42:00,
2013-01-02 15:47:00,69.1,21.0,30.06,West,270,4.0,7.0,16,0.00,,,0.00,meteohub,2013-01-02 23:47:00,
2013-01-02 15:52:00,68.9,25.0,30.06,NW,315,4.0,6.0,19,0.00,,,0.00,meteohub,2013-01-02 23:52:00,
2013-01-02 15:57:00,68.5,24.6,30.06,NW,315,4.0,6.0,19,0.00,,,0.00,meteohub,2013-01-02 23:57:00,
2013-01-02 16:02:00,68.5,30.4,30.06,NW,315,4.0,6.0,24,0.00,,,0.00,meteohub,2013-01-03 00:02:00,
2013-01-02 16:07:00,68.4,30.2,30.06,NW,315,2.0,6.0,24,0.00,,,0.00,meteohub,2013-01-03 00:07:00,
2013-01-02 16:12:00,68.7,29.5,30.05,NW,315,2.0,4.0,23,0.00,,,0.00,meteohub,2013-01-03 00:12:00,
2013-01-02 16:17:00,68.2,30.0,30.05,NW,315,4.0,4.0,24,0.00,,,0.00,meteohub,2013-01-03 00:17:00,
2013-01-02 16:22:00,67.3,30.2,30.05,NW,315,4.0,4.0,25,0.00,,,0.00,meteohub,2013-01-03 00:22:00,
2013-01-02 16:27:00,66.4,29.5,30.05,NW,315,3.0,4.0,25,0.00,,,0.00,meteohub,2013-01-03 00:27:00,
2013-01-02 16:32:00,65.7,29.8,30.05,NW,315,3.0,4.0,26,0.00,,,0.00,meteohub,2013-01-03 00:32:00,
2013-01-02 16:37:00,64.9,30.2,30.05,North,0,2.0,5.0,27,0.00,,,0.00,meteohub,2013-01-03 00:37:00,
2013-01-02 16:42:00,64.0,30.2,30.05,North,0,3.0,5.0,28,0.00,,,0.00,meteohub,2013-01-03 00:42:00,
2013-01-02 16:47:00,63.1,31.3,30.05,North,0,2.0,4.0,30,0.00,,,0.00,meteohub,2013-01-03 00:47:00,
2013-01-02 16:52:00,62.1,31.8,30.05,North,0,3.0,4.0,32,0.00,,,0.00,meteohub,2013-01-03 00:52:00,
2013-01-02 16:57:00,61.3,32.0,30.05,North,0,2.0,4.0,33,0.00,,,0.00,meteohub,2013-01-03 00:57:00,
2013-01-02 17:02:00,60.8,32.2,30.05,North,0,2.0,4.0,34,0.00,,,0.00,meteohub,2013-01-03 01:02:00,
2013-01-02 17:07:00,60.1,33.1,30.05,North,0,2.0,4.0,36,0.00,,,0.00,meteohub,2013-01-03 01:07:00,
2013-01-02 17:12:00,59.5,33.3,30.05,North,0,2.0,4.0,37,0.00,,,0.00,meteohub,2013-01-03 01:12:00,
2013-01-02 17:17:00,59.0,34.2,30.05,NNE,23,2.0,4.0,39,0.00,,,0.00,meteohub,2013-01-03 01:17:00,
2013-01-02 17:22:00,58.6,34.3,30.05,North,0,2.0,5.0,40,0.00,,,0.00,meteohub,2013-01-03 01:22:00,
2013-01-02 17:27:00,58.1,34.5,30.06,North,0,2.0,5.0,41,0.00,,,0.00,meteohub,2013-01-03 01:27:00,
2013-01-02 17:32:00,57.6,35.8,30.06,North,0,2.0,5.0,44,0.00,,,0.00,meteohub,2013-01-03 01:32:00,
2013-01-02 17:37:00,56.8,35.8,30.06,North,0,2.0,2.0,45,0.00,,,0.00,meteohub,2013-01-03 01:37:00,
2013-01-02 17:42:00,56.3,36.3,30.06,North,0,2.0,2.0,47,0.00,,,0.00,meteohub,2013-01-03 01:42:00,
2013-01-02 17:47:00,55.8,35.8,30.06,North,0,1.0,3.0,47,0.00,,,0.00,meteohub,2013-01-03 01:47:00,
2013-01-02 17:52:00,55.4,36.0,30.06,North,0,2.0,3.0,48,0.00,,,0.00,meteohub,2013-01-03 01:52:00,
2013-01-02 17:57:00,55.0,35.2,30.06,North,0,1.0,3.0,47,0.00,,,0.00,meteohub,2013-01-03 01:57:00,
2013-01-02 18:02:00,54.5,35.8,30.06,NE,45,2.0,2.0,49,0.00,,,0.00,meteohub,2013-01-03 02:02:00,
2013-01-02 18:07:00,54.3,35.6,30.06,NE,45,2.0,2.0,49,0.00,,,0.00,meteohub,2013-01-03 02:07:00,
2013-01-02 18:12:00,54.1,35.4,30.07,NE,45,0.0,2.0,49,0.00,,,0.00,meteohub,2013-01-03 02:12:00,
2013-01-02 18:17:00,53.8,35.1,30.07,NE,45,0.0,2.0,49,0.00,,,0.00,meteohub,2013-01-03 02:17:00,
2013-01-02 18:22:00,53.2,35.1,30.07,NE,45,1.0,2.0,50,0.00,,,0.00,meteohub,2013-01-03 02:22:00,
2013-01-02 18:27:00,52.9,35.8,30.08,NE,45,0.0,2.0,52,0.00,,,0.00,meteohub,2013-01-03 02:27:00,
2013-01-02 18:32:00,52.3,35.8,30.07,NE,45,2.0,2.0,53,0.00,,,0.00,meteohub,2013-01-03 02:32:00,
2013-01-02 18:37:00,52.2,35.6,30.07,NE,45,0.0,2.0,53,0.00,,,0.00,meteohub,2013-01-03 02:37:00,
2013-01-02 18:42:00,52.0,35.4,30.07,NE,45,1.0,2.0,53,0.00,,,0.00,meteohub,2013-01-03 02:42:00,
2013-01-02 18:47:00,51.6,35.1,30.08,NE,45,0.0,2.0,53,0.00,,,0.00,meteohub,2013-01-03 02:47:00,
2013-01-02 18:52:00,51.1,35.4,30.08,NE,45,0.0,1.0,55,0.00,,,0.00,meteohub,2013-01-03 02:52:00,
2013-01-02 18:57:00,50.9,35.8,30.08,NE,45,0.0,2.0,56,0.00,,,0.00,meteohub,2013-01-03 02:57:00,
2013-01-02 19:02:00,50.7,35.6,30.08,NE,45,2.0,2.0,56,0.00,,,0.00,meteohub,2013-01-03 03:02:00,
2013-01-02 19:07:00,50.4,36.5,30.08,NE,45,1.0,2.0,59,0.00,,,0.00,meteohub,2013-01-03 03:07:00,
2013-01-02 19:12:00,50.4,37.0,30.08,NE,45,0.0,2.0,60,0.00,,,0.00,meteohub,2013-01-03 03:12:00,
2013-01-02 19:17:00,50.5,37.9,30.08,North,0,2.0,2.0,62,0.00,,,0.00,meteohub,2013-01-03 03:17:00,
2013-01-02 19:22:00,50.5,37.2,30.08,North,0,0.0,2.0,60,0.00,,,0.00,meteohub,2013-01-03 03:22:00,
2013-01-02 19:27:00,50.4,37.0,30.07,North,0,2.0,2.0,60,0.00,,,0.00,meteohub,2013-01-03 03:27:00,
2013-01-02 19:32:00,49.8,36.5,30.07,North,0,1.0,2.0,60,0.00,,,0.00,meteohub,2013-01-03 03:32:00,
2013-01-02 19:39:00,49.8,37.8,30.07,North,0,1.0,2.0,63,0.00,,,0.00,meteohub,2013-01-03 03:39:00,
2013-01-02 19:40:00,49.8,37.8,30.07,North,0,1.0,2.0,63,0.00,,,0.00,meteohub,2013-01-03 03:40:00,
2013-01-02 19:47:00,49.6,37.6,30.07,North,0,2.0,2.0,63,0.00,,,0.00,meteohub,2013-01-03 03:47:00,
2013-01-02 19:52:00,49.6,37.6,30.07,North,0,0.0,2.0,63,0.00,,,0.00,meteohub,2013-01-03 03:52:00,
2013-01-02 19:57:00,49.1,37.4,30.07,North,0,0.0,2.0,64,0.00,,,0.00,meteohub,2013-01-03 03:57:00,
2013-01-02 20:02:00,48.9,38.1,30.07,North,0,1.0,2.0,66,0.00,,,0.00,meteohub,2013-01-03 04:02:00,
2013-01-02 20:07:00,48.6,38.1,30.07,North,0,2.0,2.0,67,0.00,,,0.00,meteohub,2013-01-03 04:07:00,
2013-01-02 20:12:00,48.0,37.9,30.07,North,0,0.0,2.0,68,0.00,,,0.00,meteohub,2013-01-03 04:12:00,
2013-01-02 20:17:00,47.3,36.9,30.07,North,0,0.0,2.0,67,0.00,,,0.00,meteohub,2013-01-03 04:17:00,
2013-01-02 20:22:00,47.1,37.4,30.07,North,0,0.0,2.0,69,0.00,,,0.00,meteohub,2013-01-03 04:22:00,
2013-01-02 20:27:00,46.9,37.2,30.07,North,0,0.0,1.0,69,0.00,,,0.00,meteohub,2013-01-03 04:27:00,
2013-01-02 20:32:00,46.8,37.6,30.07,North,0,0.0,0.0,70,0.00,,,0.00,meteohub,2013-01-03 04:32:00,
2013-01-02 20:37:00,46.6,37.4,30.07,North,0,0.0,0.0,70,0.00,,,0.00,meteohub,2013-01-03 04:37:00,
2013-01-02 20:42:00,46.8,37.6,30.07,North,0,1.0,0.0,70,0.00,,,0.00,meteohub,2013-01-03 04:42:00,
2013-01-02 20:47:00,46.8,37.6,30.07,North,0,2.0,2.0,70,0.00,,,0.00,meteohub,2013-01-03 04:47:00,
2013-01-02 20:52:00,47.1,38.5,30.07,NW,315,3.0,3.0,72,0.00,,,0.00,meteohub,2013-01-03 04:52:00,
2013-01-02 20:57:00,47.3,37.9,30.07,NW,315,2.0,4.0,70,0.00,,,0.00,meteohub,2013-01-03 04:57:00,
2013-01-02 21:00:00,46.9,37.6,30.07,NW,315,0.0,4.0,70,0.00,,,0.00,meteohub,2013-01-03 05:00:00,
2013-01-02 21:01:00,46.8,37.6,30.07,NW,315,0.0,4.0,70,0.00,,,0.00,meteohub,2013-01-03 05:01:00,
2013-01-02 21:02:00,46.8,37.6,30.07,NW,315,1.0,4.0,70,0.00,,,0.00,meteohub,2013-01-03 05:02:00,
2013-01-02 21:07:00,46.4,37.6,30.07,NW,315,2.0,4.0,71,0.00,,,0.00,meteohub,2013-01-03 05:07:00,
2013-01-02 21:12:00,46.4,37.9,30.07,NW,315,1.0,2.0,72,0.00,,,0.00,meteohub,2013-01-03 05:12:00,
2013-01-02 21:17:00,46.0,37.2,30.07,NW,315,0.0,2.0,71,0.00,,,0.00,meteohub,2013-01-03 05:17:00,
2013-01-02 21:22:00,45.5,36.7,30.07,NW,315,0.0,2.0,71,0.00,,,0.00,meteohub,2013-01-03 05:22:00,
2013-01-02 21:27:00,44.8,37.4,30.07,NW,315,2.0,2.0,75,0.00,,,0.00,meteohub,2013-01-03 05:27:00,
2013-01-02 21:32:00,44.6,37.8,30.07,NE,45,2.0,2.0,77,0.00,,,0.00,meteohub,2013-01-03 05:32:00,
2013-01-02 21:37:00,44.2,37.6,30.07,NE,45,1.0,3.0,77,0.00,,,0.00,meteohub,2013-01-03 05:37:00,
2013-01-02 21:42:00,43.7,36.7,30.07,NE,45,0.0,3.0,76,0.00,,,0.00,meteohub,2013-01-03 05:42:00,
2013-01-02 21:47:00,43.3,37.2,30.07,NE,45,2.0,3.0,79,0.00,,,0.00,meteohub,2013-01-03 05:47:00,
2013-01-02 21:52:00,43.3,37.6,30.07,NE,45,1.0,2.0,80,0.00,,,0.00,meteohub,2013-01-03 05:52:00,
2013-01-02 21:57:00,43.5,37.4,30.08,NE,45,1.0,2.0,79,0.00,,,0.00,meteohub,2013-01-03 05:57:00,
2013-01-02 22:02:00,43.2,36.7,30.07,NE,45,0.0,2.0,78,0.00,,,0.00,meteohub,2013-01-03 06:02:00,
2013-01-02 22:07:00,43.0,37.2,30.07,NE,45,0.0,2.0,80,0.00,,,0.00,meteohub,2013-01-03 06:07:00,
2013-01-02 22:12:00,43.0,37.2,30.08,NE,45,0.0,2.0,80,0.00,,,0.00,meteohub,2013-01-03 06:12:00,
2013-01-02 22:17:00,42.8,37.0,30.07,NE,45,1.0,1.0,80,0.00,,,0.00,meteohub,2013-01-03 06:17:00,
2013-01-02 22:22:00,42.6,36.9,30.08,NE,45,1.0,1.0,80,0.00,,,0.00,meteohub,2013-01-03 06:22:00,
2013-01-02 22:27:00,43.2,37.4,30.08,NE,45,2.0,2.0,80,0.00,,,0.00,meteohub,2013-01-03 06:27:00,
2013-01-02 22:32:00,43.3,37.6,30.08,NE,45,0.0,2.0,80,0.00,,,0.00,meteohub,2013-01-03 06:32:00,
2013-01-02 22:37:00,43.0,36.9,30.08,NE,45,2.0,2.0,79,0.00,,,0.00,meteohub,2013-01-03 06:37:00,
2013-01-02 22:42:00,42.6,37.2,30.08,NE,45,1.0,2.0,81,0.00,,,0.00,meteohub,2013-01-03 06:42:00,
2013-01-02 22:47:00,42.3,36.5,30.09,NE,45,0.0,2.0,80,0.00,,,0.00,meteohub,2013-01-03 06:47:00,
2013-01-02 22:52:00,42.3,37.2,30.08,NE,45,2.0,2.0,82,0.00,,,0.00,meteohub,2013-01-03 06:52:00,
2013-01-02 22:57:00,42.4,37.4,30.09,NE,45,0.0,2.0,82,0.00,,,0.00,meteohub,2013-01-03 06:57:00,
2013-01-02 23:02:00,42.4,37.4,30.08,NE,45,3.0,3.0,82,0.00,,,0.00,meteohub,2013-01-03 07:02:00,
2013-01-02 23:07:00,42.3,37.2,30.08,NE,45,1.0,3.0,82,0.00,,,0.00,meteohub,2013-01-03 07:07:00,
2013-01-02 23:12:00,42.4,37.0,30.09,NE,45,1.0,3.0,81,0.00,,,0.00,meteohub,2013-01-03 07:12:00,
2013-01-02 23:17:00,42.1,36.7,30.09,NE,45,0.0,3.0,81,0.00,,,0.00,meteohub,2013-01-03 07:17:00,
2013-01-02 23:22:00,41.7,36.3,30.08,NE,45,0.0,2.0,81,0.00,,,0.00,meteohub,2013-01-03 07:22:00,
2013-01-02 23:27:00,41.5,36.5,30.09,NE,45,0.0,1.0,82,0.00,,,0.00,meteohub,2013-01-03 07:27:00,
2013-01-02 23:33:00,41.4,36.5,30.09,NE,45,0.0,0.0,83,0.00,,,0.00,meteohub,2013-01-03 07:33:00,
2013-01-02 23:38:00,41.2,36.5,30.08,NE,45,0.0,0.0,83,0.00,,,0.00,meteohub,2013-01-03 07:38:00,
2013-01-02 23:43:00,41.0,36.3,30.09,NE,45,0.0,0.0,83,0.00,,,0.00,meteohub,2013-01-03 07:43:00,
2013-01-02 23:48:00,41.0,37.2,30.09,NE,45,0.0,0.0,86,0.00,,,0.00,meteohub,2013-01-03 07:48:00,
2013-01-02 23:53:00,41.2,37.0,30.08,NE,45,0.0,0.0,85,0.00,,,0.00,meteohub,2013-01-03 07:53:00,
2013-01-02 23:58:00,41.2,37.4,30.08,South,180,2.0,0.0,86,0.00,,,0.00,meteohub,2013-01-03 07:58:00,